| time (UTC) | temp F | wind direction | speed MPH | gust MPH | rain 1hr in | rain 24hr in | rain mn in | humidity % | barometer mb |
| 20260903110840 | 83 | 170 | 3.0 | 5.0 | 0.00 | 0.00 | 0.00 | 87 | 1013.9 |
| 20260903110333 | 83 | 189 | 2.0 | 6.0 | 0.00 | 0.00 | 0.00 | 87 | 1013.9 |
| 20260903105841 | 83 | 186 | 3.0 | 6.0 | 0.00 | 0.00 | 0.00 | 87 | 1013.8 |
| 20260903105331 | 83 | 160 | 4.0 | 6.0 | 0.00 | 0.00 | 0.00 | 87 | 1013.8 |
| 20260903104824 | 83 | 167 | 2.0 | 6.0 | 0.00 | 0.00 | 0.00 | 87 | 1013.8 |
| 20260903104337 | 83 | 184 | 3.0 | 6.0 | 0.00 | 0.00 | 0.00 | 87 | 1013.5 |
| 20260903103830 | 83 | 186 | 2.0 | 10.0 | 0.00 | 0.00 | 0.00 | 87 | 1013.5 |
| 20260903103323 | 83 | 190 | 3.0 | 5.0 | 0.00 | 0.00 | 0.00 | 87 | 1013.5 |
| 20260903102902 | 83 | 182 | 3.0 | 9.0 | 0.00 | 0.00 | 0.00 | 87 | 1013.5 |
| 20260903102332 | 83 | 171 | 4.0 | 9.0 | 0.00 | 0.00 | 0.00 | 87 | 1013.5 |
| 20260903101825 | 83 | 149 | 2.0 | 6.0 | 0.00 | 0.00 | 0.00 | 87 | 1013.5 |
| 20260903101338 | 83 | 181 | 3.0 | 6.0 | 0.00 | 0.00 | 0.00 | 87 | 1013.6 |
| 20260903100833 | 83 | 176 | 3.0 | 5.0 | 0.00 | 0.00 | 0.00 | 87 | 1013.6 |
| 20260903100346 | 83 | 191 | 4.0 | 5.0 | 0.00 | 0.00 | 0.00 | 87 | 1013.6 |
| 20260903095904 | 83 | 175 | 3.0 | 5.0 | 0.00 | 0.00 | 0.00 | 87 | 1013.6 |
| 20260903095354 | 83 | 171 | 4.0 | 6.0 | 0.00 | 0.00 | 0.00 | 87 | 1013.6 |
| 20260903094827 | 83 | 191 | 3.0 | 6.0 | 0.00 | 0.00 | 0.00 | 87 | 1013.6 |
| 20260903094406 | 83 | 198 | 3.0 | 6.0 | 0.00 | 0.00 | 0.00 | 87 | 1013.5 |
| 20260903093837 | 84 | 153 | 4.0 | 6.0 | 0.00 | 0.00 | 0.00 | 86 | 1013.5 |
| 20260903093328 | 84 | 186 | 3.0 | 6.0 | 0.00 | 0.00 | 0.00 | 86 | 1013.5 |
| 20260903092837 | 84 | 203 | 4.0 | 6.0 | 0.00 | 0.00 | 0.00 | 86 | 1013.7 |
| 20260903092329 | 84 | 198 | 2.0 | 5.0 | 0.00 | 0.00 | 0.00 | 86 | 1013.7 |
| 20260903091842 | 84 | 175 | 3.0 | 5.0 | 0.00 | 0.00 | 0.00 | 86 | 1013.7 |
| 20260903091333 | 84 | 186 | 3.0 | 7.0 | 0.00 | 0.00 | 0.00 | 86 | 1013.5 |
| 20260903090826 | 84 | 175 | 3.0 | 7.0 | 0.00 | 0.00 | 0.00 | 86 | 1013.5 |
| 20260903090322 | 84 | 175 | 3.0 | 7.0 | 0.00 | 0.00 | 0.00 | 86 | 1013.5 |
| 20260903085833 | 84 | 186 | 5.0 | 10.0 | 0.00 | 0.00 | 0.00 | 86 | 1013.4 |
| 20260903085328 | 84 | 126 | 4.0 | 10.0 | 0.00 | 0.00 | 0.00 | 86 | 1013.4 |
| 20260903084819 | 84 | 163 | 3.0 | 9.0 | 0.00 | 0.00 | 0.00 | 86 | 1013.4 |
| 20260903084334 | 84 | 179 | 5.0 | 9.0 | 0.00 | 0.00 | 0.00 | 86 | 1013.3 |
| 20260903083824 | 84 | 227 | 3.0 | 10.0 | 0.00 | 0.00 | 0.00 | 86 | 1013.3 |
| 20260903083337 | 83 | 181 | 3.0 | 10.0 | 0.00 | 0.00 | 0.00 | 86 | 1013.3 |
| 20260903082829 | 83 | 182 | 5.0 | 10.0 | 0.00 | 0.00 | 0.00 | 86 | 1013.3 |
| 20260903082342 | 83 | 186 | 4.0 | 11.0 | 0.00 | 0.00 | 0.00 | 86 | 1013.3 |
| 20260903081835 | 83 | 185 | 7.0 | 11.0 | 0.00 | 0.00 | 0.00 | 86 | 1013.3 |
| 20260903081328 | 83 | 216 | 6.0 | 9.0 | 0.00 | 0.00 | 0.00 | 86 | 1013.3 |
| 20260903080823 | 83 | 183 | 3.0 | 8.0 | 0.00 | 0.00 | 0.00 | 86 | 1013.3 |
| 20260903080334 | 83 | 183 | 5.0 | 8.0 | 0.00 | 0.00 | 0.00 | 87 | 1013.3 |
| 20260903075829 | 83 | 168 | 4.0 | 10.0 | 0.00 | 0.00 | 0.00 | 87 | 1013.3 |
| 20260903075323 | 83 | 181 | 7.0 | 10.0 | 0.00 | 0.00 | 0.00 | 87 | 1013.3 |
| 20260903074903 | 83 | 135 | 3.0 | 7.0 | 0.00 | 0.00 | 0.00 | 87 | 1013.3 |
| 20260903074333 | 83 | 175 | 4.0 | 11.0 | 0.00 | 0.00 | 0.00 | 87 | 1013.3 |
| 20260903073825 | 83 | 189 | 5.0 | 11.0 | 0.00 | 0.00 | 0.00 | 87 | 1013.3 |
| 20260903073339 | 83 | 150 | 4.0 | 8.0 | 0.00 | 0.00 | 0.00 | 88 | 1013.3 |
| 20260903072832 | 83 | 203 | 3.0 | 7.0 | 0.00 | 0.00 | 0.00 | 88 | 1013.3 |
| 20260903072327 | 83 | 216 | 4.0 | 7.0 | 0.00 | 0.00 | 0.00 | 88 | 1013.3 |
| 20260903071837 | 83 | 188 | 3.0 | 7.0 | 0.00 | 0.00 | 0.00 | 88 | 1013.3 |
| 20260903071327 | 83 | 147 | 4.0 | 7.0 | 0.00 | 0.00 | 0.00 | 88 | 1013.4 |
| 20260903070839 | 83 | 203 | 3.0 | 7.0 | 0.00 | 0.00 | 0.00 | 89 | 1013.4 |
| 20260903070330 | 83 | 185 | 3.0 | 9.0 | 0.00 | 0.00 | 0.00 | 89 | 1013.4 |
| 20260903065819 | 83 | 171 | 4.0 | 9.0 | 0.00 | 0.00 | 0.00 | 89 | 1013.8 |
| 20260903065334 | 83 | 178 | 4.0 | 9.0 | 0.00 | 0.00 | 0.00 | 89 | 1013.8 |
| 20260903064827 | 83 | 175 | 3.0 | 10.0 | 0.00 | 0.00 | 0.00 | 89 | 1013.8 |
| 20260903064343 | 83 | 196 | 6.0 | 10.0 | 0.00 | 0.00 | 0.00 | 89 | 1013.7 |
| 20260903063854 | 83 | 139 | 3.0 | 9.0 | 0.00 | 0.00 | 0.00 | 89 | 1013.7 |
| 20260903063345 | 83 | 137 | 5.0 | 9.0 | 0.00 | 0.00 | 0.00 | 89 | 1013.7 |
| 20260903062837 | 83 | 141 | 5.0 | 8.0 | 0.00 | 0.00 | 0.00 | 89 | 1013.9 |
| 20260903062329 | 83 | 130 | 4.0 | 7.0 | 0.00 | 0.00 | 0.00 | 89 | 1013.9 |
| 20260903061839 | 83 | 142 | 5.0 | 8.0 | 0.00 | 0.00 | 0.00 | 89 | 1013.9 |
| 20260903061332 | 83 | 141 | 4.0 | 9.0 | 0.00 | 0.00 | 0.00 | 89 | 1014.2 |
| 20260903060823 | 83 | 141 | 6.0 | 9.0 | 0.00 | 0.00 | 0.00 | 88 | 1014.2 |
| 20260903060337 | 84 | 203 | 4.0 | 10.0 | 0.00 | 0.00 | 0.00 | 88 | 1014.2 |
| 20260903055827 | 84 | 150 | 4.0 | 11.0 | 0.00 | 0.00 | 0.00 | 87 | 1014.3 |
| 20260903055338 | 84 | 168 | 5.0 | 11.0 | 0.00 | 0.00 | 0.00 | 86 | 1014.3 |
| 20260903054828 | 85 | 144 | 5.0 | 11.0 | 0.00 | 0.00 | 0.00 | 85 | 1014.3 |
| 20260903054342 | 85 | 196 | 4.0 | 11.0 | 0.00 | 0.00 | 0.00 | 85 | 1014.5 |
| 20260903053851 | 85 | 187 | 3.0 | 10.0 | 0.00 | 0.00 | 0.00 | 84 | 1014.5 |
| 20260903053325 | 85 | 186 | 4.0 | 8.0 | 0.00 | 0.00 | 0.00 | 84 | 1014.5 |
| 20260903052838 | 85 | 147 | 4.0 | 6.0 | 0.00 | 0.00 | 0.00 | 84 | 1014.8 |
| 20260903052330 | 85 | 194 | 4.0 | 6.0 | 0.00 | 0.00 | 0.00 | 84 | 1014.8 |
| 20260903051825 | 85 | 177 | 3.0 | 9.0 | 0.00 | 0.00 | 0.00 | 84 | 1014.8 |
| 20260903051321 | 85 | 210 | 4.0 | 9.0 | 0.00 | 0.00 | 0.00 | 84 | 1014.9 |
| 20260903050833 | 85 | 126 | 3.0 | 5.0 | 0.00 | 0.00 | 0.00 | 84 | 1014.9 |
| 20260903050344 | 85 | 198 | 2.0 | 5.0 | 0.00 | 0.00 | 0.00 | 83 | 1014.9 |
| 20260903045828 | 85 | 172 | 4.0 | 6.0 | 0.00 | 0.00 | 0.00 | 83 | 1014.9 |
| 20260903045340 | 85 | 170 | 3.0 | 6.0 | 0.00 | 0.00 | 0.00 | 83 | 1014.9 |
| 20260903044833 | 85 | 175 | 3.0 | 6.0 | 0.00 | 0.00 | 0.00 | 83 | 1014.9 |
| 20260903044329 | 85 | 219 | 4.0 | 5.0 | 0.00 | 0.00 | 0.00 | 83 | 1015.1 |
| 20260903043823 | 86 | 195 | 2.0 | 7.0 | 0.00 | 0.00 | 0.00 | 82 | 1015.1 |
| 20260903043336 | 86 | 159 | 4.0 | 7.0 | 0.00 | 0.00 | 0.00 | 82 | 1015.1 |
| 20260903042829 | 86 | 215 | 2.0 | 6.0 | 0.00 | 0.00 | 0.00 | 82 | 1015.0 |
| 20260903042321 | 86 | 192 | 2.0 | 12.0 | 0.00 | 0.00 | 0.00 | 82 | 1015.0 |
| 20260903041834 | 86 | 141 | 6.0 | 12.0 | 0.00 | 0.00 | 0.00 | 82 | 1015.0 |
| 20260903041326 | 86 | 154 | 4.0 | 12.0 | 0.00 | 0.00 | 0.00 | 82 | 1014.8 |
| 20260903040840 | 86 | 181 | 4.0 | 10.0 | 0.00 | 0.00 | 0.00 | 82 | 1014.8 |
| 20260903040333 | 86 | 140 | 3.0 | 12.0 | 0.00 | 0.00 | 0.00 | 82 | 1014.8 |
| 20260903035843 | 86 | 201 | 3.0 | 12.0 | 0.00 | 0.00 | 0.00 | 82 | 1014.4 |
| 20260903035332 | 86 | 132 | 5.0 | 11.0 | 0.00 | 0.00 | 0.00 | 82 | 1014.4 |
| 20260903034823 | 86 | 122 | 4.0 | 12.0 | 0.00 | 0.00 | 0.00 | 82 | 1014.4 |
| 20260903034337 | 86 | 111 | 9.0 | 12.0 | 0.00 | 0.00 | 0.00 | 82 | 1014.4 |
| 20260903033845 | 86 | 142 | 6.0 | 14.0 | 0.00 | 0.00 | 0.00 | 82 | 1014.4 |
| 20260903033337 | 86 | 159 | 7.0 | 14.0 | 0.00 | 0.00 | 0.00 | 81 | 1014.4 |
| 20260903032831 | 86 | 129 | 7.0 | 14.0 | 0.00 | 0.00 | 0.00 | 81 | 1014.4 |
| 20260903032322 | 86 | 156 | 7.0 | 13.0 | 0.00 | 0.00 | 0.00 | 80 | 1014.4 |
| 20260903031838 | 86 | 136 | 5.0 | 15.0 | 0.00 | 0.00 | 0.00 | 80 | 1014.4 |
| 20260903031330 | 86 | 172 | 8.0 | 15.0 | 0.00 | 0.00 | 0.00 | 80 | 1014.1 |
| 20260903030826 | 86 | 137 | 5.0 | 14.0 | 0.00 | 0.00 | 0.00 | 79 | 1014.1 |
| 20260903030339 | 87 | 165 | 8.0 | 14.0 | 0.00 | 0.00 | 0.00 | 77 | 1014.1 |
| 20260903025829 | 87 | 141 | 6.0 | 10.0 | 0.00 | 0.00 | 0.00 | 76 | 1013.9 |
| 20260903025322 | 87 | 125 | 4.0 | 11.0 | 0.00 | 0.00 | 0.00 | 75 | 1013.9 |
| 20260903024834 | 87 | 148 | 7.0 | 11.0 | 0.00 | 0.00 | 0.00 | 75 | 1013.9 |
| 20260903024329 | 87 | 207 | 5.0 | 12.0 | 0.00 | 0.00 | 0.00 | 73 | 1013.6 |
| 20260903023841 | 87 | 144 | 6.0 | 14.0 | 0.00 | 0.00 | 0.00 | 73 | 1013.6 |
| 20260903023332 | 87 | 144 | 10.0 | 14.0 | 0.00 | 0.00 | 0.00 | 72 | 1013.6 |
| 20260903022835 | 86 | 142 | 9.0 | 14.0 | 0.00 | 0.00 | 0.00 | 72 | 1013.3 |
| 20260903022327 | 86 | 131 | 3.0 | 9.0 | 0.00 | 0.00 | 0.00 | 73 | 1013.3 |
| 20260903021822 | 85 | 126 | 4.0 | 9.0 | 0.00 | 0.00 | 0.00 | 75 | 1013.3 |
| 20260903021339 | 85 | 117 | 3.0 | 7.0 | 0.00 | 0.00 | 0.00 | 76 | 1013.3 |
| 20260903020831 | 85 | 136 | 5.0 | 7.0 | 0.00 | 0.00 | 0.00 | 76 | 1013.3 |
| 20260903020343 | 85 | 126 | 2.0 | 5.0 | 0.00 | 0.00 | 0.00 | 76 | 1013.3 |
| 20260903015837 | 85 | 148 | 3.0 | 10.0 | 0.00 | 0.00 | 0.00 | 76 | 1013.3 |
| 20260903015329 | 85 | 137 | 2.0 | 10.0 | 0.00 | 0.00 | 0.00 | 77 | 1013.3 |
| 20260903014820 | 84 | 129 | 6.0 | 9.0 | 0.00 | 0.00 | 0.00 | 78 | 1013.3 |
| 20260903014356 | 84 | 141 | 1.0 | 3.0 | 0.00 | 0.00 | 0.00 | 80 | 1013.6 |
| 20260903013827 | 84 | 126 | 0.0 | 5.0 | 0.00 | 0.00 | 0.00 | 81 | 1013.6 |
| 20260903013345 | 84 | 131 | 3.0 | 5.0 | 0.00 | 0.00 | 0.00 | 80 | 1013.6 |
| 20260903012857 | 84 | 329 | 1.0 | 4.0 | 0.00 | 0.00 | 0.00 | 80 | 1013.8 |
| 20260903012333 | 84 | 10 | 1.0 | 5.0 | 0.00 | 0.00 | 0.00 | 79 | 1013.8 |
| 20260903011846 | 85 | 68 | 3.0 | 7.0 | 0.00 | 0.00 | 0.00 | 79 | 1013.8 |
| 20260903011332 | 85 | 89 | 1.0 | 7.0 | 0.00 | 0.00 | 0.00 | 78 | 1013.3 |
| 20260903010823 | 86 | 11 | 3.0 | 7.0 | 0.00 | 0.00 | 0.00 | 75 | 1013.3 |
| 20260903010338 | 88 | 68 | 3.0 | 7.0 | 0.00 | 0.00 | 0.00 | 72 | 1013.3 |
| 20260903005827 | 90 | 22 | 2.0 | 10.0 | 0.00 | 0.00 | 0.00 | 63 | 1012.3 |
| 20260903005344 | 90 | 139 | 3.0 | 11.0 | 0.00 | 0.00 | 0.00 | 62 | 1012.3 |
| 20260903004838 | 91 | 144 | 4.0 | 14.0 | 0.00 | 0.00 | 0.00 | 62 | 1012.3 |
| 20260903004332 | 91 | 156 | 7.0 | 15.0 | 0.00 | 0.00 | 0.00 | 61 | 1011.9 |
| 20260903003845 | 91 | 182 | 7.0 | 15.0 | 0.00 | 0.00 | 0.00 | 61 | 1011.9 |
| 20260903003359 | 91 | 142 | 8.0 | 14.0 | 0.00 | 0.00 | 0.00 | 60 | 1011.9 |
| 20260903002831 | 91 | 161 | 8.0 | 18.0 | 0.00 | 0.00 | 0.00 | 60 | 1011.7 |
| 20260903002328 | 91 | 143 | 11.0 | 18.0 | 0.00 | 0.00 | 0.00 | 60 | 1011.7 |
| 20260903001842 | 92 | 163 | 10.0 | 15.0 | 0.00 | 0.00 | 0.00 | 60 | 1011.7 |
| 20260903001355 | 92 | 191 | 10.0 | 14.0 | 0.00 | 0.00 | 0.00 | 61 | 1011.6 |
| 20260903000825 | 92 | 146 | 8.0 | 17.0 | 0.00 | 0.00 | 0.00 | 61 | 1011.6 |
| 20260903000336 | 92 | 149 | 12.0 | 17.0 | 0.00 | 0.00 | 0.00 | 61 | 1011.6 |
| 20260902235846 | 93 | 182 | 6.0 | 14.0 | 0.00 | 0.00 | 0.00 | 62 | 1011.3 |
| 20260902235358 | 93 | 130 | 7.0 | 14.0 | 0.00 | 0.00 | 0.00 | 62 | 1011.3 |
| 20260902234853 | 93 | 148 | 7.0 | 12.0 | 0.00 | 0.00 | 0.00 | 62 | 1011.3 |
| 20260902234345 | 93 | 194 | 6.0 | 12.0 | 0.00 | 0.00 | 0.00 | 62 | 1011.2 |
| 20260902233900 | 94 | 135 | 8.0 | 12.0 | 0.00 | 0.00 | 0.00 | 61 | 1011.2 |
| 20260902233329 | 94 | 179 | 5.0 | 15.0 | 0.00 | 0.00 | 0.00 | 61 | 1011.2 |
| 20260902232843 | 94 | 160 | 7.0 | 15.0 | 0.00 | 0.00 | 0.00 | 60 | 1011.5 |
| 20260902232400 | 94 | 146 | 4.0 | 15.0 | 0.00 | 0.00 | 0.00 | 59 | 1011.5 |
| 20260902231832 | 94 | 139 | 4.0 | 13.0 | 0.00 | 0.00 | 0.00 | 59 | 1011.5 |
| 20260902231325 | 94 | 194 | 9.0 | 13.0 | 0.00 | 0.00 | 0.00 | 58 | 1011.3 |
| 20260902230840 | 94 | 149 | 7.0 | 13.0 | 0.00 | 0.00 | 0.00 | 58 | 1011.3 |
| 20260902230334 | 94 | 184 | 7.0 | 14.0 | 0.00 | 0.00 | 0.00 | 59 | 1011.3 |
| 20260902225824 | 94 | 131 | 7.0 | 15.0 | 0.00 | 0.00 | 0.00 | 59 | 1011.4 |
| 20260902225341 | 95 | 135 | 6.0 | 16.0 | 0.00 | 0.00 | 0.00 | 59 | 1011.4 |
| 20260902224834 | 95 | 187 | 7.0 | 16.0 | 0.00 | 0.00 | 0.00 | 58 | 1011.4 |
| 20260902224326 | 95 | 165 | 8.0 | 15.0 | 0.00 | 0.00 | 0.00 | 58 | 1011.3 |
| 20260902223834 | 95 | 156 | 10.0 | 15.0 | 0.00 | 0.00 | 0.00 | 58 | 1011.3 |
| 20260902223327 | 96 | 179 | 8.0 | 14.0 | 0.00 | 0.00 | 0.00 | 57 | 1011.3 |
| 20260902222838 | 96 | 125 | 10.0 | 14.0 | 0.00 | 0.00 | 0.00 | 56 | 1011.3 |
| 20260902222330 | 96 | 151 | 8.0 | 13.0 | 0.00 | 0.00 | 0.00 | 56 | 1011.3 |
| 20260902221845 | 96 | 144 | 5.0 | 14.0 | 0.00 | 0.00 | 0.00 | 56 | 1011.3 |
| 20260902221336 | 96 | 186 | 8.0 | 14.0 | 0.00 | 0.00 | 0.00 | 56 | 1011.5 |
| 20260902220831 | 96 | 125 | 8.0 | 14.0 | 0.00 | 0.00 | 0.00 | 56 | 1011.5 |
| 20260902220323 | 96 | 178 | 8.0 | 14.0 | 0.00 | 0.00 | 0.00 | 56 | 1011.5 |
| 20260902215834 | 96 | 149 | 6.0 | 12.0 | 0.00 | 0.00 | 0.00 | 56 | 1011.4 |
| 20260902215329 | 96 | 195 | 5.0 | 13.0 | 0.00 | 0.00 | 0.00 | 56 | 1011.4 |
| 20260902214822 | 96 | 141 | 9.0 | 13.0 | 0.00 | 0.00 | 0.00 | 56 | 1011.4 |
| 20260902214338 | 96 | 140 | 5.0 | 12.0 | 0.00 | 0.00 | 0.00 | 55 | 1011.6 |
| 20260902213831 | 96 | 179 | 6.0 | 17.0 | 0.00 | 0.00 | 0.00 | 54 | 1011.6 |
| 20260902213322 | 96 | 137 | 5.0 | 13.0 | 0.00 | 0.00 | 0.00 | 54 | 1011.6 |
| 20260902212837 | 97 | 146 | 6.0 | 11.0 | 0.00 | 0.00 | 0.00 | 53 | 1011.7 |
| 20260902212327 | 97 | 183 | 7.0 | 11.0 | 0.00 | 0.00 | 0.00 | 53 | 1011.7 |
| 20260902211845 | 97 | 201 | 5.0 | 11.0 | 0.00 | 0.00 | 0.00 | 53 | 1011.7 |
| 20260902211359 | 97 | 152 | 6.0 | 10.0 | 0.00 | 0.00 | 0.00 | 53 | 1011.8 |
| 20260902210833 | 97 | 188 | 4.0 | 13.0 | 0.00 | 0.00 | 0.00 | 53 | 1011.8 |
| 20260902210327 | 97 | 192 | 8.0 | 13.0 | 0.00 | 0.00 | 0.00 | 53 | 1011.8 |
| 20260902205840 | 98 | 144 | 5.0 | 13.0 | 0.00 | 0.00 | 0.00 | 53 | 1011.9 |
| 20260902205335 | 98 | 248 | 4.0 | 13.0 | 0.00 | 0.00 | 0.00 | 52 | 1011.9 |
| 20260902204826 | 97 | 127 | 4.0 | 12.0 | 0.00 | 0.00 | 0.00 | 53 | 1011.9 |
| 20260902204339 | 98 | 145 | 6.0 | 12.0 | 0.00 | 0.00 | 0.00 | 53 | 1012.2 |
| 20260902203828 | 98 | 183 | 3.0 | 10.0 | 0.00 | 0.00 | 0.00 | 52 | 1012.2 |
| 20260902203322 | 98 | 229 | 4.0 | 13.0 | 0.00 | 0.00 | 0.00 | 52 | 1012.2 |
| 20260902202837 | 98 | 107 | 3.0 | 8.0 | 0.00 | 0.00 | 0.00 | 52 | 1012.2 |
| 20260902202330 | 98 | 214 | 4.0 | 8.0 | 0.00 | 0.00 | 0.00 | 53 | 1012.2 |
| 20260902201825 | 98 | 203 | 2.0 | 9.0 | 0.00 | 0.00 | 0.00 | 53 | 1012.2 |
| 20260902201337 | 98 | 245 | 3.0 | 9.0 | 0.00 | 0.00 | 0.00 | 52 | 1012.3 |
| 20260902200828 | 98 | 260 | 4.0 | 7.0 | 0.00 | 0.00 | 0.00 | 53 | 1012.3 |
| 20260902200322 | 98 | 194 | 4.0 | 7.0 | 0.00 | 0.00 | 0.00 | 53 | 1012.3 |
| 20260902195838 | 98 | 167 | 3.0 | 7.0 | 0.00 | 0.00 | 0.00 | 53 | 1012.8 |
| 20260902195331 | 98 | 269 | 3.0 | 6.0 | 0.00 | 0.00 | 0.00 | 53 | 1012.8 |
| 20260902194825 | 97 | 219 | 4.0 | 10.0 | 0.00 | 0.00 | 0.00 | 54 | 1012.8 |
| 20260902194337 | 97 | 203 | 2.0 | 10.0 | 0.00 | 0.00 | 0.00 | 54 | 1013.1 |
| 20260902193832 | 96 | 191 | 2.0 | 10.0 | 0.00 | 0.00 | 0.00 | 55 | 1013.1 |
| 20260902193330 | 96 | 210 | 4.0 | 10.0 | 0.00 | 0.00 | 0.00 | 55 | 1013.1 |
| 20260902192821 | 96 | 194 | 4.0 | 10.0 | 0.00 | 0.00 | 0.00 | 55 | 1013.3 |
| 20260902192335 | 96 | 193 | 4.0 | 10.0 | 0.00 | 0.00 | 0.00 | 56 | 1013.3 |
| 20260902191827 | 96 | 267 | 3.0 | 15.0 | 0.00 | 0.00 | 0.00 | 55 | 1013.3 |
| 20260902191322 | 96 | 260 | 3.0 | 15.0 | 0.00 | 0.00 | 0.00 | 55 | 1013.3 |
| 20260902190835 | 96 | 203 | 4.0 | 10.0 | 0.00 | 0.00 | 0.00 | 55 | 1013.3 |
| 20260902190329 | 96 | 208 | 6.0 | 10.0 | 0.00 | 0.00 | 0.00 | 57 | 1013.3 |
| 20260902185900 | 95 | 242 | 2.0 | 9.0 | 0.00 | 0.00 | 0.00 | 59 | 1013.8 |
| 20260902185330 | 95 | 226 | 3.0 | 9.0 | 0.00 | 0.00 | 0.00 | 58 | 1013.8 |
| 20260902184842 | 95 | 303 | 3.0 | 11.0 | 0.00 | 0.00 | 0.00 | 59 | 1013.8 |
| 20260902184354 | 95 | 113 | 3.0 | 11.0 | 0.00 | 0.00 | 0.00 | 59 | 1013.9 |
| 20260902183841 | 94 | 201 | 2.0 | 4.0 | 0.00 | 0.00 | 0.00 | 61 | 1013.9 |
| 20260902183353 | 94 | 330 | 2.0 | 6.0 | 0.00 | 0.00 | 0.00 | 61 | 1013.9 |
| 20260902182824 | 94 | 223 | 3.0 | 9.0 | 0.00 | 0.00 | 0.00 | 61 | 1014.3 |
| 20260902182337 | 93 | 301 | 5.0 | 9.0 | 0.00 | 0.00 | 0.00 | 62 | 1014.3 |
| 20260902181830 | 93 | 179 | 3.0 | 7.0 | 0.00 | 0.00 | 0.00 | 62 | 1014.3 |
| 20260902181324 | 93 | 244 | 3.0 | 10.0 | 0.00 | 0.00 | 0.00 | 63 | 1014.6 |
| 20260902180838 | 93 | 243 | 4.0 | 10.0 | 0.00 | 0.00 | 0.00 | 62 | 1014.6 |
| 20260902180333 | 93 | 195 | 4.0 | 10.0 | 0.00 | 0.00 | 0.00 | 63 | 1014.6 |
| 20260902175825 | 93 | 215 | 3.0 | 10.0 | 0.00 | 0.00 | 0.00 | 63 | 1014.8 |
| 20260902175338 | 93 | 189 | 4.0 | 11.0 | 0.00 | 0.00 | 0.00 | 64 | 1014.8 |
| 20260902174833 | 93 | 215 | 4.0 | 16.0 | 0.00 | 0.00 | 0.00 | 63 | 1014.8 |
| 20260902174328 | 93 | 265 | 6.0 | 16.0 | 0.00 | 0.00 | 0.00 | 64 | 1015.0 |
| 20260902173822 | 93 | 263 | 4.0 | 14.0 | 0.00 | 0.00 | 0.00 | 63 | 1015.0 |
| 20260902173334 | 93 | 138 | 5.0 | 12.0 | 0.00 | 0.00 | 0.00 | 65 | 1015.0 |
| 20260902172849 | 93 | 209 | 7.0 | 11.0 | 0.00 | 0.00 | 0.00 | 64 | 1015.3 |
| 20260902172340 | 92 | 213 | 4.0 | 10.0 | 0.00 | 0.00 | 0.00 | 66 | 1015.3 |
| 20260902171833 | 92 | 198 | 5.0 | 9.0 | 0.00 | 0.00 | 0.00 | 67 | 1015.3 |
| 20260902171323 | 91 | 262 | 2.0 | 12.0 | 0.00 | 0.00 | 0.00 | 68 | 1015.5 |
| 20260902170834 | 91 | 248 | 7.0 | 12.0 | 0.00 | 0.00 | 0.00 | 68 | 1015.5 |
| 20260902170328 | 90 | 214 | 3.0 | 13.0 | 0.00 | 0.00 | 0.00 | 69 | 1015.5 |
| 20260902165838 | 91 | 276 | 6.0 | 13.0 | 0.00 | 0.00 | 0.00 | 68 | 1015.6 |
| 20260902165332 | 90 | 215 | 7.0 | 13.0 | 0.00 | 0.00 | 0.00 | 70 | 1015.6 |
| 20260902164847 | 90 | 304 | 5.0 | 12.0 | 0.00 | 0.00 | 0.00 | 70 | 1015.6 |
| 20260902164401 | 90 | 204 | 6.0 | 14.0 | 0.00 | 0.00 | 0.00 | 71 | 1015.7 |
| 20260902163833 | 89 | 10 | 3.0 | 14.0 | 0.00 | 0.00 | 0.00 | 73 | 1015.7 |
| 20260902163326 | 88 | 193 | 6.0 | 13.0 | 0.00 | 0.00 | 0.00 | 76 | 1015.7 |
| 20260902162840 | 88 | 242 | 4.0 | 14.0 | 0.00 | 0.00 | 0.00 | 76 | 1015.9 |
| 20260902162330 | 87 | 207 | 6.0 | 14.0 | 0.00 | 0.00 | 0.00 | 77 | 1015.9 |
| 20260902161821 | 87 | 229 | 6.0 | 11.0 | 0.00 | 0.00 | 0.00 | 78 | 1015.9 |
| 20260902161334 | 86 | 197 | 4.0 | 9.0 | 0.00 | 0.00 | 0.00 | 80 | 1015.9 |
| 20260902160826 | 86 | 227 | 3.0 | 11.0 | 0.00 | 0.00 | 0.00 | 81 | 1015.9 |
| 20260902160338 | 85 | 258 | 3.0 | 11.0 | 0.00 | 0.00 | 0.00 | 82 | 1015.9 |
| 20260902155848 | 85 | 227 | 3.0 | 16.0 | 0.00 | 0.00 | 0.00 | 83 | 1015.9 |
| 20260902155322 | 85 | 281 | 6.0 | 16.0 | 0.00 | 0.00 | 0.00 | 83 | 1015.9 |
| 20260902154835 | 84 | 207 | 4.0 | 12.0 | 0.00 | 0.00 | 0.00 | 84 | 1015.9 |
| 20260902154331 | 84 | 227 | 2.0 | 12.0 | 0.00 | 0.00 | 0.00 | 85 | 1015.9 |
| 20260902153843 | 84 | 233 | 2.0 | 5.0 | 0.00 | 0.00 | 0.00 | 86 | 1015.9 |
| 20260902153336 | 84 | 218 | 2.0 | 7.0 | 0.00 | 0.00 | 0.00 | 86 | 1015.9 |
| 20260902152830 | 84 | 241 | 1.0 | 9.0 | 0.00 | 0.00 | 0.00 | 87 | 1015.8 |
| 20260902152322 | 83 | 259 | 5.0 | 9.0 | 0.00 | 0.00 | 0.00 | 87 | 1015.8 |
| 20260902151833 | 83 | 239 | 1.0 | 7.0 | 0.00 | 0.00 | 0.00 | 88 | 1015.8 |
| 20260902151346 | 83 | 225 | 4.0 | 7.0 | 0.00 | 0.00 | 0.00 | 88 | 1015.9 |
| 20260902150859 | 83 | 208 | 2.0 | 6.0 | 0.00 | 0.00 | 0.00 | 88 | 1015.9 |
| 20260902150331 | 83 | 182 | 2.0 | 6.0 | 0.00 | 0.00 | 0.00 | 88 | 1015.9 |
| 20260902145843 | 83 | 221 | 1.0 | 6.0 | 0.00 | 0.00 | 0.00 | 89 | 1015.9 |
| 20260902145339 | 82 | 224 | 1.0 | 6.0 | 0.00 | 0.00 | 0.00 | 89 | 1015.9 |
| 20260902144831 | 82 | 177 | 3.0 | 9.0 | 0.00 | 0.00 | 0.00 | 89 | 1015.9 |
| 20260902144343 | 82 | 339 | 2.0 | 9.0 | 0.00 | 0.00 | 0.00 | 89 | 1015.8 |
| 20260902143830 | 82 | 290 | 5.0 | 10.0 | 0.00 | 0.00 | 0.00 | 89 | 1015.8 |
| 20260902143325 | 82 | 195 | 4.0 | 10.0 | 0.00 | 0.00 | 0.00 | 89 | 1015.8 |
| 20260902142840 | 82 | 228 | 3.0 | 9.0 | 0.00 | 0.00 | 0.00 | 89 | 1015.8 |
| 20260902142332 | 82 | 319 | 3.0 | 7.0 | 0.00 | 0.00 | 0.00 | 90 | 1015.8 |
| 20260902141826 | 82 | 217 | 4.0 | 7.0 | 0.00 | 0.00 | 0.00 | 90 | 1015.8 |
| 20260902141339 | 82 | 326 | 2.0 | 7.0 | 0.00 | 0.00 | 0.00 | 90 | 1015.7 |
| 20260902140832 | 82 | 267 | 1.0 | 6.0 | 0.00 | 0.00 | 0.00 | 91 | 1015.7 |
| 20260902140326 | 81 | 204 | 1.0 | 6.0 | 0.00 | 0.00 | 0.00 | 91 | 1015.7 |
| 20260902135836 | 81 | 229 | 2.0 | 6.0 | 0.00 | 0.00 | 0.00 | 91 | 1015.6 |
| 20260902135330 | 81 | 247 | 3.0 | 10.0 | 0.00 | 0.00 | 0.00 | 91 | 1015.6 |
| 20260902134824 | 81 | 233 | 5.0 | 10.0 | 0.00 | 0.00 | 0.00 | 91 | 1015.6 |
| 20260902134341 | 81 | 274 | 0.0 | 6.0 | 0.00 | 0.00 | 0.00 | 92 | 1015.6 |
| 20260902133833 | 81 | 222 | 2.0 | 7.0 | 0.00 | 0.00 | 0.00 | 92 | 1015.6 |
| 20260902133329 | 81 | 250 | 4.0 | 10.0 | 0.00 | 0.00 | 0.00 | 92 | 1015.6 |
| 20260902132843 | 81 | 233 | 3.0 | 10.0 | 0.00 | 0.00 | 0.00 | 92 | 1015.4 |
| 20260902132335 | 81 | 243 | 2.0 | 6.0 | 0.00 | 0.00 | 0.00 | 92 | 1015.4 |
| 20260902131830 | 81 | 210 | 2.0 | 7.0 | 0.00 | 0.00 | 0.00 | 92 | 1015.4 |
| 20260902131324 | 80 | 222 | 2.0 | 7.0 | 0.00 | 0.00 | 0.00 | 93 | 1015.3 |
| 20260902130838 | 80 | 260 | 3.0 | 9.0 | 0.00 | 0.00 | 0.00 | 93 | 1015.2 |
| 20260902130349 | 80 | 229 | 2.0 | 9.0 | 0.00 | 0.00 | 0.00 | 93 | 1015.2 |
| 20260902125822 | 80 | 180 | 5.0 | 7.0 | 0.00 | 0.00 | 0.00 | 93 | 1015.0 |
| 20260902125335 | 80 | 220 | 4.0 | 6.0 | 0.00 | 0.00 | 0.00 | 93 | 1015.0 |
| 20260902124828 | 80 | 231 | 2.0 | 5.0 | 0.00 | 0.00 | 0.00 | 93 | 1015.0 |
| 20260902124319 | 80 | 172 | 2.0 | 4.0 | 0.00 | 0.00 | 0.00 | 93 | 1014.8 |
| 20260902123902 | 80 | 250 | 0.0 | 6.0 | 0.00 | 0.00 | 0.00 | 93 | 1014.8 |
| 20260902123353 | 80 | 259 | 1.0 | 6.0 | 0.00 | 0.00 | 0.00 | 93 | 1014.8 |
| 20260902122829 | 80 | 246 | 3.0 | 6.0 | 0.00 | 0.00 | 0.00 | 93 | 1014.3 |
| 20260902122320 | 80 | 231 | 2.0 | 5.0 | 0.00 | 0.00 | 0.00 | 93 | 1014.3 |
| 20260902121830 | 80 | 260 | 0.0 | 8.0 | 0.00 | 0.00 | 0.00 | 93 | 1014.3 |
| 20260902121322 | 80 | 190 | 2.0 | 8.0 | 0.00 | 0.00 | 0.00 | 93 | 1013.8 |
| 20260902120835 | 80 | 218 | 2.0 | 7.0 | 0.00 | 0.00 | 0.00 | 93 | 1013.8 |
| 20260902120327 | 80 | 202 | 1.0 | 10.0 | 0.00 | 0.00 | 0.00 | 93 | 1013.8 |
| 20260902115838 | 80 | 235 | 4.0 | 10.0 | 0.00 | 0.00 | 0.00 | 93 | 1013.9 |
| 20260902115331 | 80 | 231 | 5.0 | 12.0 | 0.00 | 0.00 | 0.00 | 93 | 1013.9 |
| 20260902114826 | 80 | 243 | 5.0 | 12.0 | 0.00 | 0.00 | 0.00 | 93 | 1013.9 |
| 20260902114344 | 80 | 208 | 3.0 | 11.0 | 0.00 | 0.00 | 0.00 | 93 | 1014.0 |
| 20260902113835 | 80 | 205 | 1.0 | 11.0 | 0.00 | 0.00 | 0.00 | 92 | 1014.0 |
| 20260902113329 | 80 | 220 | 2.0 | 7.0 | 0.00 | 0.00 | 0.00 | 92 | 1014.0 |
| 20260902112824 | 80 | 236 | 3.0 | 7.0 | 0.00 | 0.00 | 0.00 | 92 | 1013.8 |
| 20260902112337 | 80 | 287 | 3.0 | 7.0 | 0.00 | 0.00 | 0.00 | 92 | 1013.8 |
| 20260902111833 | 80 | 258 | 2.0 | 7.0 | 0.00 | 0.00 | 0.00 | 92 | 1013.8 |
| 20260902111347 | 80 | 229 | 2.0 | 7.0 | 0.00 | 0.00 | 0.00 | 92 | 1013.8 |